Ypsilanti, MI

8:32 PM EST on February 22, 2018 (GMT -0500)
Willow Run

Weather History for KYIP - December, 2012

Change the Weather History Date:

Tuesday, December 4, 2012

  Actual Average Record
Temperature  
Mean Temperature 52 °F -  
Max Temperature 63 °F 39 °F 63 °F (2012)
Min Temperature 41 °F 26 °F 1 °F (2002)
Degree Days  
Heating Degree Days 13    
Growing Degree Days 2 (Base 50)    
Moisture  
Dew Point 46 °F    
Average Humidity 74    
Maximum Humidity 82    
Minimum Humidity 63    
Precipitation  
Precipitation 0.17 in - - ()
Sea Level Pressure  
Sea Level Pressure 29.99 in    
Wind  
Wind Speed 14 mph (WSW)    
Max Wind Speed 20 mph    
Max Gust Speed 26 mph    
Visibility 9 miles    
Events Rain    
Averages and records for this station are not official NWS values.
T = Trace of Precipitation, MM = Missing Value Source: NWS Daily Summary

Daily Weather History Graph

Daily Weather History Graph

Search for Another Location

Airport or City:

Trip Planner

Search our weather history database for the weather conditions in past years. The results will help you decide how hot, cold, wet, or windy it might be!

Date:

Astronomy

Dec. 04, 2012 Rise Set
Actual Time 7:46 AM EST 5:02 PM EST
Civil Twilight 7:15 AM EST 5:33 PM EST
Nautical Twilight 6:40 AM EST 6:08 PM EST
Astronomical Twilight 6:06 AM EST 6:42 PM EST
Moon 10:52 PM EST (12/4) 11:36 AM EST (12/4)
Length of Visible Light 10h 18m
Length of Day
9h 15m
Waning Gibbous, 69% of the Moon is Illuminated
Dec 4
Waning Gibbous
Dec 6
Last Quarter
Dec 13
New
Dec 20
First Quarter
Dec 28
Full

Hourly Weather History & Observations

Time (EST) Temp. Windchill Dew Point Humidity Pressure Visibility Wind Dir Wind Speed Gust Speed Precip Events Conditions
12:53 AM 63.0 °F - 54.0 °F 72% 29.92 in 10.0 mi SSW 17.3 mph 26.5 mph N/A   Partly Cloudy
1:53 AM 63.0 °F - 54.0 °F 72% 29.93 in 10.0 mi SSW 18.4 mph 25.3 mph N/A   Mostly Cloudy
2:53 AM 61.0 °F - 53.1 °F 75% 29.93 in 10.0 mi SSW 16.1 mph - N/A   Clear
3:53 AM 60.1 °F - 52.0 °F 75% 29.92 in 10.0 mi SSW 15.0 mph 24.2 mph N/A   Partly Cloudy
4:53 AM 60.1 °F - 51.1 °F 72% 29.92 in 10.0 mi SSW 17.3 mph - N/A   Scattered Clouds
5:51 AM 60.8 °F - 51.8 °F 72% 29.92 in 10.0 mi SSW 15.0 mph - N/A   Mostly Cloudy
5:53 AM 60.1 °F - 51.1 °F 72% 29.91 in 10.0 mi SSW 16.1 mph - N/A   Mostly Cloudy
6:53 AM 61.0 °F - 51.1 °F 70% 29.92 in 10.0 mi SSW 13.8 mph - N/A   Overcast
7:53 AM 61.0 °F - 51.1 °F 70% 29.94 in 10.0 mi SW 15.0 mph - N/A   Overcast
8:39 AM 59.0 °F - 53.6 °F 82% 29.97 in 2.0 mi West 13.8 mph - 0.05 in Rain Heavy Rain
8:46 AM 59.0 °F - 53.6 °F 82% 29.96 in 2.0 mi WNW 13.8 mph - 0.08 in Rain Rain
8:53 AM 57.9 °F - 52.0 °F 81% 29.97 in 2.5 mi WNW 17.3 mph - 0.09 in Rain Rain
9:00 AM 57.2 °F - 51.8 °F 82% 29.97 in 5.0 mi NW 19.6 mph 24.2 mph 0.01 in Rain Light Rain
9:15 AM 53.6 °F - 48.2 °F 82% 29.98 in 5.0 mi NW 16.1 mph - 0.01 in Rain Light Rain
9:53 AM 53.1 °F - 46.9 °F 80% 30.00 in 8.0 mi WNW 11.5 mph - 0.05 in Rain Light Rain
10:53 AM 54.0 °F - 48.0 °F 80% 30.00 in 9.0 mi NNW 4.6 mph - 0.01 in   Overcast
11:02 AM 53.6 °F - 46.4 °F 77% 30.01 in 10.0 mi NW 4.6 mph - N/A   Overcast
11:33 AM 53.6 °F - 46.4 °F 77% 30.01 in 10.0 mi West 9.2 mph - 0.00 in Rain Light Rain
11:53 AM 52.0 °F - 44.1 °F 74% 30.00 in 10.0 mi West 10.4 mph - 0.00 in Rain Light Rain
12:53 PM 51.1 °F - 41.0 °F 68% 29.98 in 10.0 mi West 8.1 mph - 0.01 in Rain Light Rain
1:53 PM 50.0 °F - 43.0 °F 77% 29.98 in 10.0 mi SW 8.1 mph - 0.01 in   Overcast
2:53 PM 51.1 °F - 43.0 °F 74% 29.99 in 10.0 mi WSW 6.9 mph - 0.00 in   Mostly Cloudy
3:53 PM 51.1 °F - 42.1 °F 71% 30.00 in 10.0 mi West 9.2 mph - N/A   Mostly Cloudy
4:53 PM 48.9 °F - 39.9 °F 71% 30.01 in 10.0 mi WSW 9.2 mph - N/A   Partly Cloudy
5:53 PM 46.0 °F 41.4 °F 39.0 °F 76% 30.03 in 10.0 mi SW 9.2 mph - N/A   Clear
6:53 PM 43.0 °F 38.2 °F 37.9 °F 82% 30.05 in 10.0 mi WSW 8.1 mph - N/A   Clear
7:53 PM 44.1 °F 39.5 °F 36.0 °F 73% 30.06 in 10.0 mi SW 8.1 mph - N/A   Clear
8:53 PM 41.0 °F 35.8 °F 33.1 °F 73% 30.06 in 10.0 mi WSW 8.1 mph - N/A   Clear
9:53 PM 43.0 °F 37.2 °F 33.1 °F 68% 30.08 in 10.0 mi West 10.4 mph - N/A   Clear
10:53 PM 45.0 °F 39.7 °F 33.1 °F 63% 30.09 in 10.0 mi West 10.4 mph - N/A   Clear
11:53 PM 43.0 °F 37.2 °F 32.0 °F 65% 30.12 in 10.0 mi WNW 10.4 mph - N/A   Clear